Regional Weather Roundup
Issued by NWS Green Bay, WI

Home | Current Version | Previous Version | Graphics & Text | Print | Product List | Glossary Off
Versions: 1 2 3 4 5 6 7 8 9 10 11 12 13 14 15 16 17 18 19 20 21 22 23 24 25 26 27 28 29 30 31 32 33 34 35 36 37 38 39 40 41 42 43 44 45 46 47 48 49 50

000
ASUS43 KGRB 200011
RWRGRB

NORTH-CENTRAL AND NORTHEAST WISCONSIN REGIONAL WEATHER ROUNDUP
NATIONAL WEATHER SERVICE GREEN BAY WI
700 PM CDT THU OCT 19 2017

WIZ005-009-010>012-018-019-200100-
NORTH CENTRAL WISCONSIN

CITY           SKY/WX    TMP DP  RH WIND       PRES   REMARKS
IRONWOOD       CLOUDY    62  31  31 S5        29.97S
MANITOWISH WTR MOCLDY    55  32  41 S5        30.01R
ARBOR VITAE    PTCLDY    57  35  43 S7        30.02R
EAGLE RIVER    PTCLDY    56  28  33 S3        30.03R
LAND O LAKES   PTCLDY    49  37  61 SE3       30.03S
RHINELANDER    CLEAR     58  33  39 S6        30.04S
PHILLIPS       CLEAR     56  33  41 S6        30.01S
ANTIGO         CLEAR     52  35  52 S6        30.07S
TOMAHAWK       CLEAR     50  36  58 CALM      30.04S
MERRILL        CLEAR     59  34  38 S3        30.05S
$$

WIZ013-073-200100-
NORTHEAST WISCONSIN

CITY           SKY/WX    TMP DP  RH WIND       PRES   REMARKS
IRON MOUNTAIN  CLOUDY    53  33  46 CALM      30.03R
MARINETTE      CLEAR     58  35  42 SW5       30.07S
OCONTO         CLEAR     58  34  41 CALM      30.06S
$$

WIZ017-030-035>037-045-200100-
CENTRAL WISCONSIN

CITY           SKY/WX    TMP DP  RH WIND       PRES   REMARKS
MEDFORD        CLEAR     53  36  53 S7        30.03F
WAUSAU         CLEAR     59  34  39 SE5       30.04S
MOSINEE        PTCLDY    55  36  47 S7        30.07S
MARSHFIELD     CLEAR     58  33  39 S9        30.05S
WISC RAPIDS    CLEAR     59  36  42 S7        30.08S
STEVENS POINT  CLEAR     53  35  51 S3        30.08R
WAUPACA        CLEAR     59  34  39 CALM      30.08S
SHAWANO        CLEAR     61  32  34 CALM      30.06F
CLINTONVILLE   CLEAR     54  37  54 S3        30.07S
WAUTOMA        CLEAR     61  35  37 S7        30.09S
$$

WIZ038-039-048-051-200100-
FOX VALLEY

CITY           SKY/WX    TMP DP  RH WIND       PRES   REMARKS
NWS GREEN BAY  CLEAR     59  39  47 S6        30.08S
APPLETON       PTCLDY    57  30  35 VRB5      30.07S
OSHKOSH        CLEAR     55  37  50 S7        30.09S
FOND DU LAC    CLEAR     57  33  40 S7        30.11R
$$

WIZ022-050-052-200100-
EAST CENTRAL WISCONSIN

CITY           SKY/WX    TMP DP  RH WIND       PRES   REMARKS
EPHRAIM        FAIR      55  34  45 S5        30.06S
WASHINGTON ISL CLOUDY    55  36  50 CALM      30.05S
STURGEON BAY   CLEAR     58  37  45 S9        30.08S
MANITOWOC      CLEAR     54  42  64 S7        30.11S
SHEBOYGAN      CLEAR     51  38  60 S5        30.12R
$$

LMZ563-521-522-541>543-200100-
LAKESHORE

STATION/POSITION TIME  TEMP    WIND        PRES    VSBY  WAVE
                       AIR SEA DIR/SP/G                  HT/PER
                 (UTC) (F)     (DEG/KT/KT) (MB)    (MI)  (FT/S)
SHEBOYGAN LKSHOR 0000   58     190/ 15/ 16 1019.8R
KEWAUNEE LKSHORE 2348   58     180/  6/  9 1018.3S
NORTHPORT PIER   2340   58     170/  3/  5 1017.6S
N MID LAKE BUOY  2350   59 58  190/ 14/ 16 1018.5R         3/ 5
S GREEN BAY BUOY 0000   60 58  180/  8/ 10 1018.1
SISTER BAY LKSHO 2319   62     200/ 10/ 11   N/A
MENOMINEE LKSHOR 2348   60     190/  6/  9 1017.5S
$$




USA.gov is the U.S. government's official web portal to all federal, state and local government web resources and services.